Weather WX

World > North America > United States > North Dakota

Ayr, North Dakota Regional Weather

Lat: 47.04N, Lon: 97.49W
Wx Zone: NDZ039
Warning FLW WEATHER ALERT - (More Info. Click Here) Warning
Feedback

Ayr, ND Regional Weather

Expires:201907161800;;737518
ASUS43 KBIS 161702
RWRND 

NORTH DAKOTA REGIONAL WEATHER ROUNDUP
NATIONAL WEATHER SERVICE BISMARCK ND
1200 PM CDT TUE JUL 16 2019

NOTE: "FAIR" INDICATES FEW OR NO CLOUDS BELOW 12,000 FEET WITH NO
SIGNIFICANT WEATHER AND/OR OBSTRUCTIONS TO VISIBILITY.



NDZ022-023-025-028>030-036>039-047>053-161800-
SOUTHEAST NORTH DAKOTA
  
CITY           SKY/WX    TMP DP  RH WIND       PRES   REMARKS
FARGO          MOSUNNY   81  62  52 VRB6      29.90S                  
JAMESTOWN      SUNNY     79  63  57 VRB5      29.94S                  
$$ 

  

SKY/WX - Weather  TMP - Temperature  DP - Dew Point  RH - Relative Humidity
WIND - Wind Direction/Speed PRES - Barometric Pressure VSB - Visibility
WCI - Wind Chill Index E13G22 Wind - East Wind 13 mph/Gusts of 22 mph